Location: Unspecified
(0.0000°N, 0.0000°E)
Time: 05:04:26
(UTC+00:00)

STARLINK-34853 - Visible Passes

Search period start: 14 February 2026 00:00
Search period end: 24 February 2026 00:00
Orbit: 474 x 476 km, 53.2° (Epoch: 11 February)

Date Brightness Start Highest point End Pass type
(mag) Time Alt. Az. Time Alt. Az. Time Alt. Az.
19 Feb 5.2 20:17:49 10° SW 20:18:26 14° SW 20:18:26 14° SW visible
20 Feb 3.2 19:47:52 10° SSW 19:50:30 44° SSW 19:50:30 44° SSW visible
21 Feb 2.3 19:17:55 10° SSW 19:21:34 59° ESE 19:22:39 39° ENE visible
22 Feb 2.7 18:47:59 10° SSW 18:51:31 44° SE 18:54:50 11° NE visible
